Location: Loup Canal
(41.4930°N, 97.5670°W)
Time: 21:23:03
(UTC-06:00)

Daily predictions for brighter satellites

Satellite Brightness Start Highest point End
(mag) Time Altitude Azimuth Time Altitude Azimuth Time Altitude Azimuth
H-2A R/B 3.7 18:31:02 10° SE 18:34:22 27° ENE 18:37:40 10° NNE
IRS-1A Rocket 4.5 18:30:29 10° SSE 18:36:17 88° WSW 18:42:13 10° NNW
FENGYUN 3A 3.7 18:31:01 10° SSE 18:36:22 71° ENE 18:41:47 10° N
Cosmos 1624 Rocket 4.0 18:34:35 10° NNW 18:39:49 68° ENE 18:44:59 10° SSE
Cosmos 2297 Rocket 2.6 18:34:34 10° S 18:39:53 43° ESE 18:45:13 10° NE
NOSS 3-2 (A) 3.4 18:36:38 10° SSW 18:42:30 78° ESE 18:49:01 10° NE
ATLAS 3B R/B 3.2 18:35:44 10° SW 18:42:58 69° NW 18:49:56 10° NNE
COSMO-SKYMED 1 2.6 18:39:49 10° NNE 18:44:11 88° WNW 18:48:32 10° SSW
Cosmos 2285 Rocket 4.0 18:38:26 10° S 18:44:43 75° ESE 18:51:07 10° NNE
MONITOR-E 4.0 18:43:20 10° SSE 18:46:22 83° ENE 18:49:24 10° N
Lacrosse 5 1.8 18:43:25 10° NW 18:48:30 79° NE 18:53:33 10° SE
ALOS 2.5 18:48:15 10° S 18:52:55 77° WSW 18:57:36 10° NNW
Cosmos 1812 3.4 18:49:31 10° NNE 18:53:02 32° ENE 18:56:32 10° SE
FALCON 9 R/B 4.1 18:48:24 10° WSW 18:54:37 60° SSE 19:15:44 13° E
USA 238 DEB 4.5 18:51:16 10° SW 18:57:59 54° NW 19:04:50 10° NNE
USA 238 4.4 18:51:22 10° SW 18:58:05 54° NW 19:04:56 10° NNE
Cosmos 2333 Rocket 2.8 18:54:07 10° NNW 18:59:42 61° WSW 19:05:14 10° S
Cosmos 44 4.0 18:56:38 10° NNW 19:01:14 35° NE 19:05:50 11° ESE
ERS-2 2.5 18:58:03 10° SE 19:01:31 40° ENE 19:05:00 10° N
Thor Agena Rocket 4.4 19:00:04 10° NE 19:04:24 27° E 19:08:39 10° SSE
Cosmos 2082 3.7 19:00:53 10° S 19:06:25 65° ESE 19:12:01 10° NNE
Cosmos 1674 Rocket 3.5 19:07:20 10° N 19:11:40 59° E 19:15:55 10° SSE
Cosmos 1633 3.0 19:09:13 10° SSE 19:12:30 36° E 19:15:48 10° NNE
CZ-4C R/B 4.4 19:09:27 10° N 19:13:25 16° NNE 19:16:56 11° NE
Envisat 3.7 19:09:42 10° SE 19:14:09 32° ENE 19:18:37 10° N
SL-8 R/B 4.0 19:10:59 10° SW 19:15:35 51° SE 19:18:35 21° ENE
Cosmos 1908 Rocket 3.9 19:13:59 10° SSE 19:18:11 42° E 19:22:25 10° NNE
EO 1 Del DPAF 3.5 19:14:43 10° N 19:18:33 71° WNW 19:22:20 10° SSW
SeaSat 1 2.7 19:18:18 10° SE 19:23:02 48° ENE 19:27:47 10° NNW
HJ-1C 3.6 19:19:46 10° SSE 19:23:04 48° ENE 19:26:24 10° N
ARGOS Delta rocket 4.3 19:20:25 10° NNE 19:24:56 36° E 19:29:12 10° SSE
USA 215 3.2 19:18:48 11° NE 19:25:13 69° SE 19:31:43 10° SW
Cosmos 1980 4.3 19:19:52 10° NNW 19:25:28 59° WSW 19:31:01 10° S
Cosmos 1733 Rocket 3.5 19:22:30 10° SSW 19:26:47 62° W 19:31:04 10° N
Aureole 3 4.1 19:22:47 10° S 19:29:07 88° E 19:34:06 10° N
Cosmos 921 Rocket 3.8 19:28:56 10° N 19:33:02 32° ENE 19:33:43 31° E
FengYun 1-2 T 4.3 19:27:36 10° SSE 19:33:07 82° WSW 19:38:39 10° NNW
Resurs 01 Rocket 2.5 19:33:23 27° ENE 19:33:23 27° ENE 19:37:00 10° N
NOSS 3-2 (C) 3.8 19:28:38 10° SW 19:34:32 66° NW 19:41:07 10° NNE
Shenzhou-11 Module 4.3 19:33:29 10° W 19:35:45 20° SSW 19:37:25 13° S
Okean 3 3.3 19:31:42 10° N 19:35:54 89° WSW 19:40:04 10° S
Cosmos 1513 Rocket 4.4 19:35:02 10° N 19:41:24 72° E 19:47:38 10° SSE
USA 186 4.2 19:44:54 14° NNE 19:44:54 14° NNE 19:45:27 10° N
Cosmos 1975 Rocket 3.5 19:41:01 10° N 19:45:11 40° ENE 19:45:11 40° ENE
SJ-6B 2.6 19:41:28 10° SSE 19:45:13 84° ENE 19:49:04 10° N
Tsikada Rocket 4.1 19:48:19 10° SSE 19:54:32 56° E 20:00:46 10° NNE
Tiangong 2 1.8 19:54:47 10° W 19:57:38 48° SW 19:57:38 48° SW
USA 267 3.7 19:56:05 33° ENE 19:58:23 44° NNE 20:04:31 10° NW
Okean 1 3.1 19:54:43 10° N 19:58:44 81° E 19:59:44 50° SSE
Cosmos 1452 Rocket 3.9 19:53:34 10° NNW 19:58:48 64° WSW 20:03:57 10° S
Meteor 1-13 Rocket 4.5 19:56:29 10° N 20:01:35 43° ENE 20:01:35 43° ENE
Cosmos 44 Rocket 3.3 19:58:03 10° NNW 20:03:07 86° ENE 20:04:47 44° SE
Spot 2 Rocket 3.7 20:04:39 47° ENE 20:04:39 47° ENE 20:09:10 10° N
CENTAUR R/B 2.4 20:00:40 10° SSW 20:06:38 89° WNW 20:11:51 18° NE
Cosmos 1048 Rocket 3.9 20:01:26 10° SSW 20:06:47 86° ESE 20:11:45 12° NNE
Geosat 3.8 20:05:21 32° NE 20:07:42 75° ESE 20:12:43 10° SSW
Sich 1 Rocket 3.8 20:03:25 10° SSW 20:07:55 72° W 20:12:25 10° N
BREEZE-M DEB (TANK) 3.3 20:06:34 10° NW 20:07:52 30° NW 20:07:52 30° NW
Cosmos 2227 Rocket 3.9 20:04:42 10° WSW 20:09:42 32° WNW 20:14:44 10° N
Cosmos 2237 Rocket 4.3 20:05:30 10° NW 20:10:06 27° WSW 20:14:42 10° SSW
Cosmos 1378 Rocket 4.4 20:07:07 10° NNW 20:11:23 50° W 20:15:39 10° SSW
SL-16 R/B 2.5 20:07:18 10° NNW 20:12:55 64° WSW 20:17:32 15° S
Cosmos 1782 Rocket 3.6 20:11:08 10° S 20:15:35 79° W 20:20:01 10° N
Iridium 4 Rocket 4.3 20:13:33 10° NNW 20:18:19 45° W 20:22:38 10° SSW
CZ-2D R/B 4.5 20:18:27 15° SSW 20:21:23 41° W 20:25:06 10° NNW
Cosmos 2297 Rocket 4.0 20:19:13 10° WSW 20:24:04 29° NW 20:28:57 10° N
Lacrosse 5 4.4 20:27:42 10° W 20:30:54 17° WSW 20:34:05 10° SSW
Cosmos 1603 4.0 20:25:32 10° NNW 20:30:10 53° NNE 20:30:10 53° NNE
Meteor 1-19 Rocket 4.5 20:41:31 10° NNW 20:46:58 64° W 20:47:32 60° SW
Meteor 2-4 Rocket 4.3 20:52:23 10° NNW 20:56:51 53° NNW 20:56:51 53° NNW
Cosmos 1634 Rocket 4.5 20:57:27 10° N 21:02:02 52° NNW 21:02:02 52° NNW
CZ-4C R/B 3.6 20:56:58 10° NNW 21:02:09 40° NNE 21:02:09 40° NNE
USA 215 4.2 21:06:10 35° N 21:07:58 42° NNW 21:14:00 10° W
Resurs 01 Rocket 3.8 21:10:56 24° WNW 21:10:56 24° WNW 21:13:27 10° NW
USA 267 4.2 21:43:26 42° WNW 21:43:26 42° WNW 21:47:42 10° NW
CENTAUR R/B 4.5 21:53:20 10° W 21:58:23 24° NNW 21:59:08 23° NNW
